Flag for U.S.A. Weather past 2 weeks in Jacksonville, Florida, U.S.A.

Now
51 °F

Light rain. Fog.


Feels Like: 45 °F
Forecast: 48 / 53 °F
Wind: 21 mph from North

Location: Jacksonville Naval Air Station

Current Time: Mar 6, 2015 at 3:58:29 PM

Latest Report: Mar 6, 2015 at 2:53 PM


Visibility: 5 mi

Pressure: 30.29 "Hg

Humidity: 86%

Dew point: 47 °F

Location of JacksonvilleLocation

Historic Weather in Jacksonville — Graph

°F

Jacksonville temperature yesterday

Maximum temperature yesterday: 87 °F (at 2:53 PM)
Minimum temperature yesterday: 67 °F (at 6:53 AM)
Average temperature yesterday: 76 °F

Past Weeks' High & Low Weather Summary

 TemperatureHumidityPressure
High87 °F (Mar 4, 2:53 PM)93% (Mar 2, 1:53 AM)30.48 "Hg (Mar 2, 1:53 AM)
Low32 °F (Feb 20, 6:53 AM)18% (Feb 19, 3:53 PM)29.56 "Hg (Feb 26, 1:53 AM)
Average60 °F70%30.17 "Hg
* Reported Feb 19 1:53 PM — Mar 6 1:53 PM, Jacksonville, Weather by CustomWeather, © 2015

Note: Actual official high and low records may vary slightly from our data, if they occured in-between our weather recording intervals... More about our weather records

Advertising

Jacksonville weather history for previous 24 hours

 ConditionsComfort  
Time TempWeatherWind HumidityBarometerVisibility
1:53 PM
Fri, Mar 6
52 °FLight rain. Fog.21 mph83%30.29 "Hg3 mi
11:53 AM53 °FFog.17 mph80%30.32 "Hg4 mi
10:53 AM54 °FLight rain. Fog.17 mph80%30.32 "Hg4 mi
8:53 AM52 °FLow clouds.21 mph80%30.30 "Hg8 mi
7:53 AM53 °FFog.20 mph80%30.27 "Hg3 mi
6:53 AM54 °FFog.20 mph80%30.26 "Hg5 mi
5:53 AM56 °FLight rain. Low clouds.16 mph84%30.22 "Hg4 mi
4:53 AM59 °FOvercast.15 mph81%30.19 "Hg10 mi
3:53 AM60 °FOvercast.18 mph80%30.17 "Hg10 mi
2:53 AM62 °FLow clouds.23 mph83%30.16 "Hg10 mi
1:53 AM63 °FDrizzle. Fog.13 mph87%30.16 "Hg3 mi
12:53 AM68 °FDrizzle. Low clouds.8 mph84%30.15 "Hg7 mi
11:53 PM
Thu, Mar 5
70 °FLow clouds.7 mph81%30.14 "Hg10 mi
10:53 PM70 °FPartly cloudy.5 mph87%30.14 "Hg10 mi
9:53 PM70 °FPassing clouds.3 mph84%30.14 "Hg10 mi
8:57 PM71 °FLight rain. Mostly cloudy.5 mph84%30.13 "Hg6 mi
8:04 PM76 °FRain. Mostly cloudy.17 mph72%30.11 "Hg3 mi
7:53 PM80 °FOvercast.12 mph60%30.06 "Hg10 mi
6:53 PM82 °FPassing clouds.13 mph53%30.03 "Hg10 mi
5:53 PM85 °FBroken clouds.14 mph46%30.01 "Hg10 mi
4:53 PM86 °FBroken clouds.17 mph42%30.00 "Hg10 mi
3:53 PM87 °FBroken clouds.15 mph39%30.00 "Hg10 mi
Weather by CustomWeather, © 2015

See weather overviewHow to use our weather pages